TimeEST,TemperatureF,Dew PointF,Humidity,Sea Level PressureIn,VisibilityMPH,Wind Direction,Wind SpeedMPH,Gust SpeedMPH,PrecipitationIn,Events,Conditions,WindDirDegrees,DateUTC
12:56 AM,44.1,34.0,68,29.91,10.0,North,11.5,17.3,N/A,,Overcast,350,2012-11-05 05:56:00
1:56 AM,43.0,34.0,71,29.91,10.0,North,8.1,-,N/A,,Mostly Cloudy,350,2012-11-05 06:56:00
2:56 AM,43.0,34.0,71,29.90,10.0,North,9.2,-,N/A,,Overcast,350,2012-11-05 07:56:00
3:56 AM,42.1,35.1,76,29.90,10.0,NNW,10.4,-,N/A,,Overcast,340,2012-11-05 08:56:00
4:56 AM,42.1,35.1,76,29.91,10.0,NNW,6.9,17.3,N/A,,Overcast,340,2012-11-05 09:56:00
5:56 AM,42.1,35.1,76,29.92,10.0,NNW,6.9,-,N/A,,Overcast,340,2012-11-05 10:56:00
6:56 AM,42.1,34.0,73,29.94,10.0,NNW,8.1,-,N/A,,Overcast,330,2012-11-05 11:56:00
7:56 AM,42.1,34.0,73,29.94,10.0,NNW,13.8,20.7,N/A,,Overcast,330,2012-11-05 12:56:00
8:16 AM,42.8,35.6,76,29.94,10.0,NNW,9.2,16.1,N/A,,Overcast,330,2012-11-05 13:16:00
8:56 AM,41.0,36.0,82,29.95,10.0,NNW,15.0,-,N/A,,Overcast,330,2012-11-05 13:56:00
9:56 AM,39.9,35.1,83,29.95,10.0,NW,9.2,21.9,N/A,,Overcast,320,2012-11-05 14:56:00
10:56 AM,41.0,36.0,82,29.94,5.0,NNW,9.2,18.4,0.00,Rain,Rain,340,2012-11-05 15:56:00
11:56 AM,39.9,36.0,86,29.93,10.0,NNW,13.8,20.7,0.01,Rain,Light Rain,340,2012-11-05 16:56:00
12:56 PM,39.9,37.0,89,29.93,10.0,NNW,12.7,25.3,0.00,Rain,Light Rain,340,2012-11-05 17:56:00
1:56 PM,39.9,36.0,86,29.93,10.0,North,10.4,21.9,0.00,Rain,Light Rain,360,2012-11-05 18:56:00
2:56 PM,41.0,36.0,82,29.95,10.0,North,9.2,-,0.02,,Overcast,10,2012-11-05 19:56:00
3:56 PM,41.0,34.0,76,29.96,10.0,North,9.2,-,0.00,,Overcast,350,2012-11-05 20:56:00
4:24 PM,41.0,32.0,70,29.97,10.0,NNW,5.8,-,N/A,,Overcast,340,2012-11-05 21:24:00
4:56 PM,41.0,30.9,67,29.98,10.0,North,9.2,-,N/A,,Overcast,360,2012-11-05 21:56:00
5:56 PM,41.0,28.9,62,30.01,10.0,North,6.9,-,N/A,,Mostly Cloudy,350,2012-11-05 22:56:00
6:56 PM,42.1,28.0,58,30.02,10.0,NNW,10.4,-,N/A,,Overcast,340,2012-11-05 23:56:00
7:56 PM,39.9,26.1,58,30.04,10.0,North,15.0,18.4,N/A,,Mostly Cloudy,350,2012-11-06 00:56:00
8:56 PM,39.0,23.0,53,30.07,10.0,NNW,12.7,19.6,N/A,,Partly Cloudy,340,2012-11-06 01:56:00
9:56 PM,37.9,24.1,57,30.07,10.0,North,9.2,-,N/A,,Partly Cloudy,350,2012-11-06 02:56:00
10:56 PM,37.9,24.1,57,30.08,10.0,NNW,9.2,-,N/A,,Clear,340,2012-11-06 03:56:00
11:56 PM,37.0,25.0,62,30.09,10.0,NNW,10.4,-,N/A,,Partly Cloudy,340,2012-11-06 04:56:00